Clermont County, Batavia, OH

10:08 PM EST on December 13, 2019 (GMT -0500)
Clermont County, Batavia

Weather History for KI69 - September, 2019

Change the Weather History Date:

Sunday, September 22, 2019

  Actual Average (WUND) Record (WUND)
Temperature  
Mean Temperature 75 °F -  
Max Temperature 88 °F - - (-1)
Min Temperature 62 °F - - (-1)
Cooling Degree Days 10    
Growing Degree Days 25 (Base 50)    
Moisture  
Dew Point 59 °F    
Average Humidity 60    
Maximum Humidity 94    
Minimum Humidity 35    
Precipitation  
Precipitation 0.00 in - - ()
Sea Level Pressure  
Sea Level Pressure 30.10 in    
Wind  
Wind Speed 4 mph (SW)    
Max Wind Speed 17 mph    
Max Gust Speed 24 mph    
Visibility 10 miles    
Events      
Averages and records for this station are not official NWS values.
T = Trace of Precipitation, MM = Missing Value Source: NWS Daily Summary

Daily Weather History Graph

Daily Weather History Graph

Search for Another Location

Airport or City:

Astronomy

Sep. 22, 2019 Rise Set
Actual Time 7:24 AM EDT 7:34 PM EDT
Civil Twilight 6:57 AM EDT 8:00 PM EDT
Nautical Twilight 6:26 AM EDT 8:32 PM EDT
Astronomical Twilight 5:54 AM EDT 9:03 PM EDT
Moon 12:15 AM EDT (9/22) 3:25 PM EDT (9/22)
Length of Visible Light 13h 03m
Length of Day
12h 09m
Last Quarter, 44% of the Moon is Illuminated
Sep 22
Last Quarter
Sep 28
New
Oct 5
First Quarter
Oct 13
Full
Oct 21
Last Quarter

Hourly Weather History & Observations

Time (EDT) Temp. Heat Index Dew Point Humidity Pressure Visibility Wind Dir Wind Speed Gust Speed Precip Events Conditions
12:19 AM 68.4 °F - 64.0 °F 86% 30.17 in 10.0 mi Calm Calm - N/A   Clear
12:37 AM 68.2 °F - 64.2 °F 87% 30.18 in 10.0 mi Calm Calm - N/A   Clear
12:55 AM 68.4 °F - 63.5 °F 84% 30.18 in 10.0 mi Calm Calm - N/A   Clear
1:15 AM 68.2 °F - 63.5 °F 85% 30.17 in 10.0 mi Calm Calm - N/A   Clear
1:36 AM 67.3 °F - 63.7 °F 88% 30.17 in 10.0 mi Calm Calm - N/A   Clear
1:59 AM 67.8 °F - 62.6 °F 83% 30.17 in 10.0 mi Calm Calm - N/A   Clear
2:17 AM 66.0 °F - 62.6 °F 89% 30.16 in 10.0 mi Calm Calm - N/A   Clear
2:35 AM 67.1 °F - 62.6 °F 85% 30.17 in 10.0 mi Calm Calm - N/A   Clear
2:55 AM 67.1 °F - 62.6 °F 85% 30.16 in 10.0 mi Calm Calm - N/A   Clear
3:15 AM 66.6 °F - 62.2 °F 86% 30.17 in 10.0 mi Calm Calm - N/A   Clear
3:39 AM 66.4 °F - 62.1 °F 86% 30.17 in 10.0 mi Calm Calm - N/A   Clear
3:57 AM 64.9 °F - 61.9 °F 90% 30.17 in 10.0 mi Calm Calm - N/A   Clear
4:15 AM 64.0 °F - 61.7 °F 92% 30.17 in 10.0 mi Calm Calm - N/A   Clear
4:35 AM 65.3 °F - 62.6 °F 91% 30.16 in 10.0 mi Calm Calm - N/A   Clear
4:55 AM 66.2 °F - 62.2 °F 87% 30.16 in 10.0 mi Calm Calm - N/A   Clear
5:19 AM 65.7 °F - 62.2 °F 89% 30.16 in 10.0 mi Calm Calm - N/A   Clear
5:37 AM 66.2 °F - 61.9 °F 86% 30.16 in 10.0 mi Calm Calm - N/A   Clear
5:55 AM 65.7 °F - 61.7 °F 87% 30.15 in 10.0 mi Calm Calm - N/A   Clear
6:15 AM 64.6 °F - 62.1 °F 92% 30.15 in 10.0 mi Calm Calm - N/A   Clear
6:35 AM 64.4 °F - 61.2 °F 89% 30.16 in 10.0 mi Calm Calm - N/A   Clear
6:58 AM 64.6 °F - 59.9 °F 85% 30.17 in 10.0 mi Calm Calm - N/A   Clear
7:17 AM 62.6 °F - 60.8 °F 94% 30.17 in 10.0 mi Calm Calm - N/A   Clear
7:35 AM 63.5 °F - 60.1 °F 89% 30.17 in 10.0 mi Calm Calm - N/A   Clear
7:55 AM 64.6 °F - 59.5 °F 84% 30.17 in 10.0 mi Calm Calm - N/A   Clear
8:15 AM 65.3 °F - 60.1 °F 83% 30.17 in 10.0 mi Calm Calm - N/A   Clear
8:38 AM 67.1 °F - 59.9 °F 78% 30.17 in 10.0 mi SSW 3.5 mph - N/A   Clear
8:56 AM 67.8 °F - 59.2 °F 74% 30.17 in 10.0 mi SSW 3.5 mph - N/A   Clear
9:15 AM 69.4 °F - 59.5 °F 71% 30.17 in 10.0 mi SSW 4.6 mph - N/A   Clear
9:55 AM 73.2 °F - 59.4 °F 62% 30.18 in 10.0 mi SW 8.1 mph - N/A   Clear
10:18 AM 74.8 °F - 59.9 °F 60% 30.18 in 10.0 mi SW 9.2 mph - N/A   Clear
10:37 AM 76.3 °F - 60.3 °F 57% 30.17 in 10.0 mi SW 5.8 mph - N/A   Clear
10:55 AM 77.9 °F - 60.8 °F 56% 30.16 in 10.0 mi SW 8.1 mph - N/A   Clear
11:15 AM 79.3 °F - 60.8 °F 53% 30.16 in 10.0 mi SW 9.2 mph - N/A   Clear
11:35 AM 80.6 °F 81.5 °F 60.8 °F 51% 30.16 in 10.0 mi SW 8.1 mph - N/A   Clear
11:58 AM 81.5 °F 82.1 °F 60.4 °F 49% 30.16 in 10.0 mi SW 10.4 mph - N/A   Clear
12:16 PM 82.6 °F 83.1 °F 60.8 °F 48% 30.14 in 10.0 mi SW 10.4 mph - N/A   Clear
12:35 PM 83.5 °F 83.6 °F 60.1 °F 45% 30.14 in 10.0 mi SW 9.2 mph - N/A   Clear
12:55 PM 85.1 °F 85.0 °F 60.4 °F 43% 30.13 in 10.0 mi SSW 9.2 mph 17.3 mph N/A   Clear
1:15 PM 85.6 °F 84.5 °F 56.5 °F 37% 30.12 in 10.0 mi SW 15.0 mph 20.7 mph N/A   Clear
1:38 PM 85.8 °F 84.5 °F 55.9 °F 36% 30.10 in 10.0 mi SW 17.3 mph 24.2 mph N/A   Clear
1:56 PM 86.2 °F 85.0 °F 56.8 °F 37% 30.09 in 10.0 mi SW 13.8 mph 19.6 mph N/A   Clear
2:16 PM 86.7 °F 85.3 °F 56.1 °F 35% 30.08 in 10.0 mi SW 16.1 mph 21.9 mph N/A   Clear
2:35 PM 86.4 °F 85.2 °F 57.0 °F 37% 30.07 in 10.0 mi SSW 15.0 mph 20.7 mph N/A   Clear
2:55 PM 87.8 °F 86.7 °F 57.7 °F 36% 30.07 in 10.0 mi SW 12.7 mph 20.7 mph N/A   Clear
3:18 PM 87.3 °F 86.1 °F 57.0 °F 36% 30.06 in 10.0 mi SSW 13.8 mph 20.7 mph N/A   Clear
3:36 PM 88.2 °F 86.9 °F 57.0 °F 35% 30.05 in 10.0 mi SW 11.5 mph 16.1 mph N/A   Clear
3:56 PM 88.0 °F 86.7 °F 56.8 °F 35% 30.05 in 10.0 mi SW 15.0 mph 21.9 mph N/A   Clear
4:15 PM 87.6 °F 86.3 °F 57.0 °F 35% 30.04 in 10.0 mi SW 12.7 mph 18.4 mph N/A   Clear
4:35 PM 87.8 °F 86.7 °F 57.4 °F 36% 30.04 in 10.0 mi WSW 13.8 mph 21.9 mph N/A   Clear
4:58 PM 87.8 °F 86.5 °F 57.0 °F 35% 30.03 in 10.0 mi WSW 12.7 mph 17.3 mph N/A   Clear
5:16 PM 86.9 °F 85.6 °F 57.0 °F 36% 30.03 in 10.0 mi SW 8.1 mph - N/A   Clear
5:35 PM 87.8 °F 86.5 °F 56.8 °F 35% 30.02 in 10.0 mi SSW 13.8 mph 19.6 mph N/A   Clear
5:55 PM 86.5 °F 85.1 °F 56.1 °F 35% 30.02 in 10.0 mi SSW 10.4 mph 17.3 mph N/A   Clear
6:15 PM 85.6 °F 84.5 °F 56.5 °F 37% 30.01 in 10.0 mi SSW 9.2 mph 16.1 mph N/A   Clear
6:38 PM 85.5 °F 84.3 °F 56.7 °F 37% 30.01 in 10.0 mi SSW 6.9 mph - N/A   Clear
6:56 PM 84.7 °F 83.7 °F 56.5 °F 38% 30.01 in 10.0 mi SSW 9.2 mph - N/A   Clear
7:15 PM 83.7 °F 82.8 °F 56.5 °F 39% 30.01 in 10.0 mi South 5.8 mph - N/A   Clear
7:35 PM 82.4 °F 81.9 °F 56.3 °F 41% 30.01 in 10.0 mi SSW 5.8 mph - N/A   Clear
7:55 PM 81.3 °F 81.1 °F 56.3 °F 42% 30.01 in 10.0 mi SSW 4.6 mph - N/A   Clear
8:18 PM 80.1 °F 80.3 °F 56.3 °F 44% 30.01 in 10.0 mi SSW 5.8 mph - N/A   Clear
8:36 PM 79.7 °F - 56.3 °F 44% 30.01 in 10.0 mi SSW 5.8 mph - N/A   Clear
8:55 PM 79.9 °F - 56.3 °F 44% 30.01 in 10.0 mi SW 8.1 mph - N/A   Clear
9:15 PM 79.7 °F - 56.3 °F 44% 30.01 in 10.0 mi SSW 5.8 mph - N/A   Clear
9:40 PM 79.7 °F - 55.8 °F 44% 30.01 in 10.0 mi SW 8.1 mph - N/A   Clear
9:58 PM 79.3 °F - 55.6 °F 44% 30.01 in 10.0 mi SW 9.2 mph - N/A   Clear
10:16 PM 78.8 °F - 55.8 °F 45% 30.02 in 10.0 mi SW 8.1 mph - N/A   Clear
10:35 PM 78.3 °F - 55.6 °F 45% 30.02 in 10.0 mi SSW 6.9 mph - N/A   Clear
10:55 PM 77.4 °F - 55.9 °F 47% 30.01 in 10.0 mi SSW 6.9 mph - N/A   Clear
11:20 PM 76.5 °F - 56.1 °F 49% 30.01 in 10.0 mi SSW 4.6 mph - N/A   Clear
11:38 PM 75.9 °F - 56.3 °F 50% 30.01 in 10.0 mi SSW 5.8 mph - N/A   Clear
11:56 PM 75.7 °F - 56.3 °F 51% 30.01 in 10.0 mi SSW 5.8 mph - N/A   Clear